Regional Weather Roundup
Issued by NWS

Home | Current Version | Previous Version | Text Only | Print | Product List | Glossary On
Versions: 1 2 3 4 5 6 7 8 9 10 11 12 13 14 15 16 17 18 19 20 21 22 23 24 25 26 27 28 29 30 31 32 33 34 35 36 37 38 39 40 41 42 43 44 45 46 47 48 49 50
000
ASUS44 KFWD 261115
RWRTX
NORTH TEXAS HOURLY WEATHER ROUNDUP
NATIONAL WEATHER SERVICE FORT WORTH TX
600 AM CDT SUN MAR 26 2017

NOTE: "FAIR" INDICATES FEW OR NO CLOUDS BELOW 12,000 FEET WITH NO
SIGNIFICANT WEATHER AND/OR OBSTRUCTIONS TO VISIBILITY.

TXZ118-119-261200-
DALLAS/FORT WORTH METROPLEX

CITY           SKY/WX    TMP DP  RH WIND       PRES   REMARKS
DFW AIRPORT    CLEAR     54  48  80 E7        29.85R
DALLAS LOVE    CLEAR     56  48  74 SE7       29.87R
FTW MEACHAM    CLEAR     55  46  71 E8        29.85F
DAL-EXECUTIVE  CLEAR     50  47  89 E3        29.86S
FTW-ALLIANCE   CLEAR     51  46  83 CALM      29.86R
FTW-SPINKS     CLEAR     50  44  80 S3        29.88R
ARLINGTON      CLEAR     46  45  96 CALM      29.86F
GRAND PRAIRIE  CLEAR     52  46  79 CALM      29.87F
ADDISON        CLEAR     54  46  76 SE6       29.88R
MESQUITE       CLEAR     49  47  92 CALM      29.89R
LANCASTER      CLEAR     44  42  94 CALM      29.88F
$$

TXZ091>094-102>105-117-120-121-131>134-261200-
NORTH CENTRAL TEXAS

CITY           SKY/WX    TMP DP  RH WIND       PRES   REMARKS
SHRMAN/DENISON CLEAR     50  46  85 SE5       29.88S
GAINESVILLE    CLEAR     47  44  88 CALM      29.88F
BOWIE          CLEAR     51  46  84 SE5       29.85S
BRIDGEPORT     CLEAR     43  43 100 CALM      29.87S
DECATUR        CLEAR     52  45  77 SE7       29.86R
DENTON         CLEAR     45  44  97 S5        29.86S
MCKINNEY       CLEAR     48  46  93 CALM      29.87F
BONHAM         CLEAR     46  45  93 SE3       29.89S
GREENVILLE     CLEAR     46  45  93 E3        29.89S
ROCKWALL       CLEAR     54  47  80 S7        29.88R
TERRELL        CLEAR     49  45  86 CALM      29.89R
WAXAHACHIE     CLEAR     51  48  89 CALM      29.88S
CLEBURNE       CLEAR     54  50  87 S7        29.88R
GRANBURY       CLEAR     56  49  79 SE8       29.86F
$$

TXZ083>090-098>101-113>116-127>130-139>142-154-155-261200-
WESTERN NORTH TEXAS

CITY           SKY/WX    TMP DP  RH WIND       PRES   REMARKS
WICHITA FALLS  CLEAR     45  41  86 E7        29.82F
WF-KICKAPOO    CLEAR     49  44  81 E6        29.83F
VERNON         CLEAR     46  39  76 NE6       29.81F
ABILENE        CLEAR     54  43  66 SE10      29.79F
ABILENE-DYESS  CLEAR     53  42  67 S8        29.77F
GRAHAM         CLEAR     55  46  74 E7        29.81F
BRECKENRIDGE   CLEAR     58  46  63 SE14      29.80F
CISCO          MOCLDY    50  45  81 SE9       29.82F
RANGER         CLEAR     54  46  76 S8        29.84S
MINERAL WELLS  CLEAR     50  45  83 SE12      29.83S
STEPHENVILLE   CLEAR     51  45  80 CALM      29.87S
COMANCHE       CLEAR     53  49  85 SE7       29.84S
BROWNWOOD      CLOUDY    54  46  76 SE3       29.83F
COLEMAN        PTCLDY    51  44  75 S3        29.83S
$$

TXZ143>147-156>162-174-175-261200-
CENTRAL TEXAS

CITY           SKY/WX    TMP DP  RH WIND       PRES   REMARKS
WACO           PTCLDY    56  50  80 SE10      29.87S
WACO-MCGREGOR  MOCLDY    57  51  80 S8        29.87S
HILLSBORO      PTCLDY    59  49  71 SE8       29.87R
CORSICANA      CLEAR     53  50  89 SE5       29.89S
MEXIA          CLEAR     54  49  83 S7        29.88R
HEARNE         CLOUDY    60  60  99 CALM      29.89F
CAMERON        CLOUDY    58  57  97 CALM      29.88R FOG
TEMPLE         CLOUDY    59  59 100 SE10      29.87S FOG
KILLEEN        CLOUDY    58  57  94 S8        29.85S FOG
KILLEEN-SKYLRK MOCLDY    60  59  96 S6        29.87S FOG
FORT HOOD      CLOUDY    58  57  96 S5        29.84R
GATESVILLE     MOCLDY    55  52  88 S5        29.88S
HAMILTON       PTCLDY    53  48  84 S8        29.86S
LAMPASAS       CLOUDY    55  52  89 CALM      29.85S
$$

TXZ095>097-106>112-122>126-135>138-148>153-164>167-261200-
EAST TEXAS

CITY           SKY/WX    TMP DP  RH WIND       PRES   REMARKS
PARIS          CLEAR     46  43  87 SE6       29.90S
SULPHUR SPRNGS CLEAR     49  48  95 SE3       29.92S
MOUNT PLEASANT PTCLDY    47  47 100 SE3       29.93R
GILMER         PTCLDY    48  47  97 CALM      29.92R
MINEOLA        CLEAR     46  46 100 CALM      29.90S
TYLER          CLEAR     52  50  93 SE7       29.90R
LONGVIEW       CLEAR     50  50 100 S3        29.92R
MARSHALL       CLEAR     47  46  94 CALM      29.95R
ATHENS         PTCLDY    46  46 100 CALM      29.89S
PALESTINE      CLEAR     55  51  88 SE3       29.90S
JACKSONVILLE   CLEAR     56  49  79 SE3       29.92S
HENDERSON      CLEAR    N/A N/A N/A CALM      29.93R
CENTER         SUNNY     51  50  95 E5        29.94S
NACOGDOCHES    CLEAR     45  43  93 CALM      29.91R
LUFKIN         CLEAR     50  48  93 CALM      29.92R
$$

SUPPLEMENTAL OBSERVATIONS (CENTRAL)

CITY           SKY/WX    TMP DP  RH WIND       PRES   REMARKS
DENISON DAM      N/A     48  43  81 E6          N/A
CADDO GRASSLND   N/A     45  43  93 E1          N/A
PAT MAYSE LAKE   N/A     48  46  93 CALM        N/A
GREENVILLE       N/A     50  45  81 SE2         N/A
CEDAR HILL       N/A     57  46  67 SE7         N/A
ATHENS           N/A     54  50  87 E1          N/A
LAKE LIMESTONE   N/A     54  50  87 SE2         N/A
MCGREGOR         N/A     61  55  82 S15         N/A
TEMPLE           N/A     57  55  94 SE2G13      N/A
$$

SUPPLEMENTAL OBSERVATIONS (WEST)

CITY           SKY/WX    TMP DP  RH WIND       PRES   REMARKS
MILLERS CREEK    N/A     55  43  62 SE13        N/A
POSSUM KINGDOM   N/A     57  45  62 SE12        N/A
LBJ GRASSLAND    N/A     54  45  71 SE6         N/A
GRANBURY         N/A     55  48  76 SE9         N/A
COMANCHE         N/A     54  46  76 SE8         N/A
HAMBY            N/A     55  43  62 SE7         N/A
IVIE RESERVOIR   N/A     54  43  66 SE6         N/A
COLORADO BEND    N/A     61  55  82 SW9G18      N/A
$$

SUPPLEMENTAL OBSERVATIONS (EAST)

CITY           SKY/WX    TMP DP  RH WIND       PRES   REMARKS
CLARKSVILLE      N/A     48  46  93 SE2         N/A
TEXARKANA        N/A     45  43  93 CALM        N/A
LINDEN           N/A     46  45  93 CALM        N/A
CADDO LAKE       N/A    N/A N/A N/A CALM        N/A
GILMER           N/A     48  46  93 CALM        N/A
HENDERSON        N/A     46  45  93 CALM        N/A
LUFKIN           N/A     48  46  93 MISG        N/A
N SABINE NF      N/A     46  45  93 MISG        N/A
S SABINE NF      N/A     48  46  93 CALM        N/A
$$

SUPPLEMENTAL OBSERVATIONS ARE A COLLECTION OF AUTOMATED INSTRUMENTS
THAT ARE MAINTAINED BY A VARIETY OF FEDERAL AND STATE AGENCIES.
CERTAIN ELEMENTS...SUCH AS HUMIDITY VALUES AND SUSTAINED WIND
SPEEDS...MAY BE APPROXIMATED.





USA.gov is the U.S. government's official web portal to all federal, state and local government web resources and services.